This is the latest recevied weather packets stored in our database for station/object WA1NHP. If no packets are shown the sender has not sent any weather packets the latest 10 day(s).
| Time | Temp. | Humidity | Pressure | Rain* | Wind** | Luminosity | Snow |
|---|---|---|---|---|---|---|---|
| 1777758244 | 11.11° C | 59% | 1023.9 hPa | 0 mm | - | 132 W/m² | - |
| 1777757644 | 11.11° C | 59% | 1023.9 hPa | 0 mm | - | 134 W/m² | - |
| 1777757043 | 11.11° C | 58% | 1023.9 hPa | 0 mm | - | 149 W/m² | - |
| 1777756444 | 11.11° C | 62% | 1023.9 hPa | 0 mm | - | 179 W/m² | - |
| 1777755843 | 11.11° C | 64% | 1023.9 hPa | 0 mm | - | 167 W/m² | - |
| 1777755243 | 12.22° C | 61% | 1023.9 hPa | 0 mm | - | 183 W/m² | - |
| 1777754644 | 12.22° C | 64% | 1023.9 hPa | 0 mm | - | 343 W/m² | - |
| 1777754043 | 11.67° C | 66% | 1023.9 hPa | 0 mm | - | 251 W/m² | - |
| 1777753444 | 11.67° C | 66% | 1023.9 hPa | 0 mm | - | 179 W/m² | - |
| 1777752844 | 11.67° C | 67% | 1023.9 hPa | 0 mm | - | 156 W/m² | - |
| 1777752244 | 11.67° C | 69% | 1023.9 hPa | 0 mm | - | 318 W/m² | - |
| 1777751644 | 11.11° C | 68% | 1023.9 hPa | 0 mm | - | 125 W/m² | - |
| 1777751044 | 11.67° C | 70% | 1023.9 hPa | 0 mm | - | 148 W/m² | - |
| 1777750444 | 11.11° C | 73% | 1023.9 hPa | 0 mm | - | 218 W/m² | - |
| 1777749844 | 11.11° C | 74% | 1023.9 hPa | 0 mm | - | 135 W/m² | - |
| 1777749244 | 11.11° C | 74% | 1023.9 hPa | 0 mm | - | 200 W/m² | - |
| 1777748644 | 11.11° C | 72% | 1023.9 hPa | 0 mm | - | 218 W/m² | - |
| 1777748044 | 11.11° C | 76% | 1023.9 hPa | 0 mm | - | 142 W/m² | - |
| 1777747444 | 11.11° C | 75% | 1023.9 hPa | 0 mm | - | 160 W/m² | - |
| 1777746844 | 11.11° C | 72% | 1023.9 hPa | 0 mm | - | 229 W/m² | - |
| 1777746243 | 11.67° C | 69% | 1023.9 hPa | 0 mm | - | 381 W/m² | - |
| 1777745644 | 11.11° C | 76% | 1023.9 hPa | 0 mm | - | 605 W/m² | - |
| 1777745043 | 10.56° C | 73% | 1023.9 hPa | 0 mm | - | 199 W/m² | - |
| 1777744443 | 11.11° C | 73% | 1023.9 hPa | 0 mm | - | 267 W/m² | - |
| 1777743843 | 11.11° C | 76% | 1023.9 hPa | 0 mm | - | 501 W/m² | - |
* Rain latest hour (hover to see other rain measurements)
** Current wind speed in m/s (hover to see current wind gust speed)